Regional Weather Roundup
Issued by NWS

Home | Current Version | Previous Version | Graphics & Text | Print | Product List | Glossary On
Versions: 1 2 3 4 5 6 7 8 9 10 11 12 13 14 15 16 17 18 19 20 21 22 23 24 25 26 27 28 29 30 31 32 33 34 35 36 37 38 39 40 41 42 43 44 45 46 47 48 49 50
000
ASUS43 KFSD 282210
RWRSD

WEATHER ROUNDUP FOR SOUTH DAKOTA
NATIONAL WEATHER SERVICE SIOUX FALLS SD
500 PM CDT SAT MAR 28 2015

NOTE: "FAIR" INDICATES FEW OR NO CLOUDS BELOW 12,000 FEET WITH NO
SIGNIFICANT WEATHER AND/OR OBSTRUCTIONS TO VISIBILITY.


SDZ001>005-009-010-012>017-282300-
NORTHWEST AND NORTH CENTRAL SOUTH DAKOTA

CITY           SKY/WX    TMP DP  RH WIND       PRES   REMARKS
BUFFALO          N/A     80  28  15 SW22      29.51F
FAITH            N/A     78  30  17 S17       29.61F
MOBRIDGE       SUNNY     67  36  31 S26       29.66F
$$

SDZ012>016-024>037-041>051-057-063-072>074-282300-
SOUTHWEST AND SOUTH CENTRAL SOUTH DAKOTA

CITY           SKY/WX    TMP DP  RH WIND       PRES   REMARKS
RAPID CTY ARPT SUNNY     82  26  13 W17       29.62F
PIERRE         SUNNY     73  36  25 S26       29.69F
CUSTER         SUNNY     72  21  14 SW13G26   29.76F
ELLSWORTH AFB  SUNNY     82  27  13 W21       29.61F
PHILIP         SUNNY     82  28  14 S17G29    29.62F
PINE RIDGE     SUNNY     81  26  13 W21G30    29.70F
SPEARFISH      FAIR      77  28  16 W21       29.65F
WINNER         FAIR      73  34  23 S24G31    29.76F
$$

SDZ004>011-016>023-039-040-282300-
NORTHEAST SOUTH DAKOTA

CITY           SKY/WX    TMP DP  RH WIND       PRES   REMARKS
ABERDEEN       SUNNY     57  31  37 S20G35    29.81F
WATERTOWN      SUNNY     52  28  39 S23G32    29.88F
SISSETON         N/A     53  32  44 S22G32    29.87F
$$

SDZ017-020-022-023-036>040-048>070-282300-
SOUTHEAST SOUTH DAKOTA

CITY           SKY/WX    TMP DP  RH WIND       PRES   REMARKS
SIOUX FALLS    SUNNY     53  26  35 S22G30    29.96F
HURON          SUNNY     56  30  37 S22G32    29.85F
CHAMBERLAIN    SUNNY     62  35  35 SE25G31   29.79F
MITCHELL       SUNNY     57  31  37 S21G30    29.89F
YANKTON        SUNNY     55  30  38 S22G30    29.95F
$$

ABBREVIATIONS USED IN REMARKS
   TC - TEMPERATURE IN CELSIUS
  WCI - WIND CHILL INDEX
   HX - HEAT INDEX
  VSB - VISIBILITY




USA.gov is the U.S. government's official web portal to all federal, state and local government web resources and services.